Fort Polk, LA

7:30 AM CST on December 14, 2019 (GMT -0600)
Fort Polk

Weather History for KAQV - November, 2019

Change the Weather History Date:

Friday, November 15, 2019

  Actual Average (KPOE) Record (KPOE)
Temperature  
Mean Temperature 48 °F -  
Max Temperature 59 °F 66 °F 82 °F (2005)
Min Temperature 36 °F 47 °F 28 °F (2018)
Degree Days  
Heating Degree Days 18    
Moisture  
Dew Point 37 °F    
Average Humidity 81    
Maximum Humidity 97    
Minimum Humidity 41    
Precipitation  
Precipitation 0.00 in - - ()
Sea Level Pressure  
Sea Level Pressure 30.32 in    
Wind  
Wind Speed 4 mph ()    
Max Wind Speed 9 mph    
Max Gust Speed -    
Visibility 5.3 miles    
Events Fog    
Averages and records for this station are not official NWS values.
T = Trace of Precipitation, MM = Missing Value Source: Averaged Metar Reports

Daily Weather History Graph

Daily Weather History Graph

Search for Another Location

Airport or City:

Astronomy

Nov. 15, 2019 Rise Set
Actual Time 6:40 AM CST 5:14 PM CST
Civil Twilight 6:14 AM CST 5:40 PM CST
Nautical Twilight 5:45 AM CST 6:09 PM CST
Astronomical Twilight 5:16 AM CST 6:38 PM CST
Moon 7:57 PM CST (11/15) 9:31 AM CST (11/15)
Length of Visible Light 11h 25m
Length of Day
10h 33m
Waning Gibbous, 90% of the Moon is Illuminated
Nov 15
Waning Gibbous
Nov 19
Last Quarter
Nov 26
New
Dec 4
First Quarter
Dec 11
Full

Hourly Weather History & Observations

Time (CST) Temp. Windchill Dew Point Humidity Pressure Visibility Wind Dir Wind Speed Gust Speed Precip Events Conditions
12:25 AM 42.1 °F 38.4 °F 39.9 °F 92% 30.33 in 1.5 mi North 5.8 mph - N/A   Overcast
12:57 AM 42.1 °F 40.2 °F 39.9 °F 92% 30.34 in 2.0 mi North 3.5 mph - N/A   Overcast
1:12 AM 42.1 °F 39.2 °F 39.9 °F 92% 30.33 in 3.0 mi North 4.6 mph - N/A   Overcast
2:07 AM 39.9 °F 37.8 °F 39.0 °F 97% 30.32 in 0.8 mi NNW 3.5 mph - N/A   Mist
2:57 AM 39.0 °F 36.8 °F 37.9 °F 96% 30.32 in 0.5 mi Variable 3.5 mph - N/A Fog Fog
3:36 AM 39.0 °F 36.8 °F 37.9 °F 96% 30.31 in 1.0 mi North 3.5 mph - N/A   Overcast
3:57 AM 39.0 °F 35.7 °F 37.9 °F 96% 30.32 in 1.2 mi North 4.6 mph - N/A   Overcast
4:57 AM 37.9 °F 35.5 °F 36.0 °F 93% 30.34 in 2.5 mi Variable 3.5 mph - N/A   Overcast
5:10 AM 37.0 °F 33.3 °F 36.0 °F 96% 30.32 in 3.0 mi North 4.6 mph - N/A   Overcast
5:17 AM 37.0 °F 33.3 °F 36.0 °F 96% 30.32 in 2.0 mi Variable 4.6 mph - N/A   Overcast
5:25 AM 37.0 °F 32.4 °F 36.0 °F 96% 30.33 in 1.8 mi North 5.8 mph - N/A   Overcast
5:31 AM 37.0 °F 32.4 °F 35.1 °F 93% 30.33 in 3.0 mi North 5.8 mph - N/A   Overcast
5:57 AM 37.0 °F 32.4 °F 35.1 °F 93% 30.34 in 5.0 mi North 5.8 mph - N/A   Partly Cloudy
6:57 AM 36.0 °F - 34.0 °F 93% 30.36 in 5.0 mi Calm Calm - N/A   Clear
7:57 AM 39.0 °F - 37.0 °F 93% 30.37 in 7.0 mi Calm Calm - N/A   Clear
8:57 AM 44.1 °F 42.5 °F 37.0 °F 76% 30.38 in 10.0 mi Variable 3.5 mph - N/A   Clear
10:57 AM 53.1 °F - 35.1 °F 50% 30.36 in 10.0 mi NE 9.2 mph - N/A   Clear
12:57 PM 57.0 °F - 34.0 °F 42% 30.29 in 10.0 mi NNE 9.2 mph - N/A   Clear
1:57 PM 57.9 °F - 35.1 °F 42% 30.27 in 10.0 mi Variable 3.5 mph - N/A   Clear
2:57 PM 59.0 °F - 35.1 °F 41% 30.27 in 10.0 mi NNE 8.1 mph - N/A   Clear
3:57 PM 57.9 °F - 36.0 °F 44% 30.26 in 10.0 mi North 4.6 mph - N/A   Clear
4:57 PM 53.1 °F - 37.0 °F 55% 30.26 in 10.0 mi Calm Calm - N/A   Clear
5:57 PM 45.0 °F - 39.0 °F 80% 30.27 in 10.0 mi Calm Calm - N/A   Clear
8:57 PM 37.0 °F - 35.1 °F 93% 30.29 in 7.0 mi Calm Calm - N/A   Clear
9:57 PM 36.0 °F - 34.0 °F 93% 30.29 in 6.0 mi Calm Calm - N/A   Clear